CAPE
0 0 0 0 0 18 201 494 602 658 662 568 573 538 494 562 631 674 704 647 576 391 282 156 19 0 0 0 0 0 0 0
0 0 0 0 0 102 313 459 578 699 550 450 124 74 7 75 133 213 299 369 358 309 270 179 79 5 0 0 1 2 2 0
0 0 0 0 0 21 81 25 0 0 0 0 0 0 0 0 0 0 0 0 0 0 0 0 0 0 0 0 1 2 2 0
0 0 0 0 0 0 0 0 0 0 0 0 0 0 0 0 0 0 0 0 0 0 0 0 0 0 0 0 0 0 2 1
0 0 0 0 0 0 0 0 0 0 0 0 0 0 0 0 0 0 0 0 0 0 0 0 0 0 0 0 0 0 0 10
0 0 0 0 0 0 0 0 0 0 0 0 0 0 0 0 0 0 0 0 0 0 0 0 0 0 0 0 0 0 0 0
0 0 0 0 0 0 0 0 0 0 0 0 0 0 0 0 0 0 0 0 0 0 0 0 0 0 0 0 0 0 0 0
0 0 0 0 0 0 0 0 0 0 0 0 0 0 0 0 0 0 0 0 0 0 0 0 0 0 0 0 0 1 0 0
0 0 0 0 0 0 0 0 0 0 0 0 0 0 0 0 0 0 0 0 0 0 0 0 0 0 0 0 0 3 3 4
0 0 0 0 0 0 0 0 0 0 0 0 0 0 0 0 0 0 0 0 0 0 0 0 0 0 0 5 1 0 0 2
0 0 0 0 0 0 0 0 0 0 0 0 0 0 0 0 0 0 0 0 0 0 0 2 3 8 6 0 0 0 3 10
0 0 0 0 0 0 0 0 0 0 0 0 0 0 0 0 0 0 0 0 0 0 1 1 2 6 3 1 0 0 8 9
0 0 0 0 0 0 0 0 0 0 0 0 0 0 0 0 0 0 0 0 1 2 6 8 11 2 0 0 1 5 7 9
0 0 0 0 0 0 0 0 0 0 0 0 0 0 0 0 0 0 1 0 0 0 2 3 2 3 3 6 7 6 5 6
0 0 0 0 0 0 0 0 0 0 0 0 0 0 0 0 0 0 1 3 2 0 1 3 3 6 8 5 1 2 3 4
0 0 0 0 0 0 0 0 0 0 0 0 0 0 0 1 0 1 1 1 1 1 2 2 2 2 2 2 1 1 1 2
0 0 0 0 0 0 0 0 0 0 0 0 0 0 1 1 0 0 1 1 2 1 1 2 1 2 1 1 2 1 2 2
0 0 0 0 0 0 0 0 0 0 0 0 0 1 1 2 1 2 1 1 1 1 3 1 1 1 1 1 1 1 1 0
0 0 0 0 0 0 0 0 0 0 0 0 2 2 1 0 1 1 1 0 1 1 1 0 1 0 1 0 0 0 0 0
CIN
0 0 0 0 0 -366 -375 -276 -215 -154 -117 -93 -68 -56 -52 -33 -22 -19 -14 -10 -14 -43 -73 -154 -333 0 0 0 0 0 0 0
0 0 0 0 0 -366 -299 -231 -175 -107 -96 -80 -188 -223 -303 -211 -156 -92 -55 -34 -30 -39 -56 -91 -174 -291 0 0 0 0 0 0
0 0 0 0 0 -270 -223 -275 0 0 0 0 0 0 0 0 0 0 0 0 0 0 0 0 0 0 0 0 0 0 0 0
0 0 0 0 0 0 0 0 0 0 0 0 0 0 0 0 0 0 0 0 0 0 0 0 0 0 0 0 0 0 -0 0
0 0 0 0 0 0 0 0 0 0 0 0 0 0 0 0 0 0 0 0 0 0 0 0 0 0 0 0 0 0 0 -0
0 0 0 0 0 0 0 0 0 0 0 0 0 0 0 0 0 0 0 0 0 0 0 0 0 0 0 0 0 0 0 0
0 0 0 0 0 0 0 0 0 0 0 0 0 0 0 0 0 0 0 0 0 0 0 0 0 0 0 0 0 0 0 0
0 0 0 0 0 0 0 0 0 0 0 0 0 0 0 0 0 0 0 0 0 0 0 0 0 0 0 0 0 -6 -7 0
0 0 0 0 0 0 0 0 0 0 0 0 0 0 0 0 0 0 0 0 0 0 0 0 0 0 0 0 -4 -11 -10 -14
0 0 0 0 0 0 0 0 0 0 0 0 0 0 0 0 0 0 0 0 0 0 0 0 0 0 -1 -8 -7 0 0 -25
0 0 0 0 0 0 0 0 0 0 0 0 0 0 0 0 0 0 0 0 0 0 0 -0 -0 -0 -1 -1 0 -0 -12 -28
0 0 0 0 0 0 0 0 0 0 0 0 0 0 0 0 0 0 0 0 0 0 -3 -0 -1 -1 -1 -1 -0 -0 -24 -10
0 0 0 0 0 0 0 0 0 0 0 0 0 0 0 0 0 0 0 0 0 0 0 -0 -0 -8 -7 -1 -0 -0 -0 0
0 0 0 0 0 0 0 0 0 0 0 0 0 0 0 0 0 0 0 0 0 0 -0 -0 -0 0 -0 -0 0 0 -0 0
0 0 0 0 0 0 0 0 0 0 0 0 0 0 0 -0 0 0 -0 0 0 0 -0 0 0 0 0 0 0 0 0 -0
0 0 0 0 0 0 0 0 0 0 0 0 0 0 0 -0 0 0 0 0 0 0 0 0 0 0 0 0 0 -0 0 0
0 0 0 0 0 0 0 0 0 0 0 0 0 0 0 0 0 0 0 0 0 0 0 0 0 0 0 0 0 0 0 0
0 0 0 0 0 0 0 0 0 0 0 0 0 0 0 0 0 0 0 0 0 0 0 0 0 0 -0 0 0 0 0 0
0 0 0 0 0 0 0 0 0 0 0 0 0 0 0 0 0 0 0 0 0 0 0 0 0 0 0 0 0 0 0 0
Wind_Speed
14 13 14 15 12 9 9 8 6 5 5 8 11 12 14 16 17 17 17 17 17 18 21 23 24 25 27 27 28 29 31 30
12 12 14 12 12 10 10 7 7 6 8 10 11 13 15 17 19 21 23 23 23 24 26 27 27 28 30 30 32 34 34 31
11 10 10 10 8 8 7 6 6 7 8 11 13 14 16 18 21 23 24 25 26 28 29 31 33 35 37 38 38 39 38 31
9 8 7 8 8 7 7 7 7 9 10 11 13 16 20 22 25 27 28 30 32 33 35 37 39 39 39 38 38 40 43 38
11 9 8 8 9 9 8 8 9 11 12 15 18 21 25 27 30 32 34 35 37 39 41 42 43 43 44 41 38 39 39 43
12 11 9 9 8 8 7 8 11 14 17 19 21 24 27 29 33 36 38 40 41 43 44 44 44 43 42 42 41 41 40 43
10 10 8 8 7 7 8 11 14 15 17 20 23 27 31 35 38 40 42 43 44 45 46 46 46 45 45 45 44 43 43 44
11 11 9 7 7 9 10 12 15 17 19 24 27 31 34 37 40 42 46 48 50 49 47 48 48 47 46 46 45 44 44 46
10 11 9 8 9 10 11 14 17 20 24 28 30 33 36 38 41 44 46 48 49 49 49 49 49 49 49 46 45 46 47 47
11 10 10 10 10 10 12 16 20 24 29 32 34 37 39 42 45 47 49 50 52 54 51 51 50 49 47 45 47 49 47 43
11 11 11 11 12 13 16 20 25 29 33 35 38 41 42 44 47 50 51 52 52 53 53 51 50 48 47 47 47 45 41 40
12 11 13 12 13 16 19 23 28 31 34 37 40 41 43 46 49 50 51 52 52 51 50 50 50 48 47 45 42 40 41 38
12 11 12 13 15 18 22 26 29 33 36 38 40 43 45 48 50 51 52 52 50 49 49 51 50 49 46 41 41 40 39 41
13 12 13 14 17 20 24 28 31 34 36 40 43 46 48 49 50 50 49 50 50 51 51 53 51 46 41 39 40 43 45 43
14 14 14 16 19 22 26 29 31 33 38 42 45 46 48 48 48 48 49 49 51 52 51 48 43 40 42 43 46 44 43 43
16 16 16 17 21 24 27 29 31 35 40 43 45 45 45 47 47 48 48 49 49 49 49 43 40 43 42 43 44 41 38 26
16 16 18 20 22 25 27 29 34 37 42 44 44 45 46 48 48 49 50 50 49 46 42 39 44 42 42 44 39 40 35 18
16 17 17 19 22 25 28 32 36 40 42 42 43 45 47 47 47 49 49 49 45 42 38 41 42 41 41 40 40 43 40 28
17 17 17 20 22 24 28 33 36 38 41 42 43 44 45 44 45 47 47 43 40 37 40 39 39 38 40 39 40 37 36 36
Wind_Direction
335 325 312 304 312 321 321 317 323 330 331 329 329 330 330 329 328 327 328 328 327 325 322 318 313 308 305 302 298 295 291 289
340 331 314 312 316 320 321 322 329 336 335 333 331 329 331 330 330 328 325 326 326 324 322 320 316 309 305 302 299 296 293 290
331 332 329 322 333 336 350 2 12 0 350 342 339 337 332 329 329 328 329 328 327 325 323 321 319 314 310 307 302 298 294 286
301 307 321 323 330 338 347 352 358 360 359 350 342 332 326 324 323 322 323 323 323 321 319 317 314 313 310 308 305 299 295 291
277 278 285 296 307 316 329 339 344 343 342 337 329 323 320 321 320 321 320 320 318 318 317 315 312 310 307 306 305 301 297 292
262 261 266 282 293 304 324 333 330 330 330 329 326 323 321 321 320 318 318 317 316 315 314 312 310 308 305 302 300 298 295 293
258 260 265 274 292 307 321 322 323 328 331 330 327 323 320 318 318 317 317 318 318 317 316 313 310 306 302 300 297 294 293 291
248 245 249 264 282 300 312 318 319 325 327 325 324 323 321 320 320 319 319 318 317 317 316 314 311 308 304 301 297 294 293 292
243 240 248 261 280 298 310 315 318 322 322 324 324 323 322 322 322 321 319 318 317 317 315 313 311 309 306 302 298 296 295 293
235 237 246 263 279 297 309 314 317 318 320 321 322 323 323 322 322 320 319 318 317 316 315 312 311 309 307 304 300 298 296 294
235 239 252 271 287 301 309 314 315 317 319 321 322 322 322 322 321 320 319 319 319 318 317 315 313 311 308 306 303 302 299 295
235 245 262 274 292 302 308 312 315 317 320 322 322 323 323 322 321 321 321 320 320 319 319 318 315 312 311 309 307 304 300 297
238 251 262 280 292 302 308 313 316 319 321 322 323 323 323 323 323 323 323 322 322 321 319 317 316 314 313 310 308 305 302 300
250 259 265 280 294 303 309 314 316 320 322 323 323 324 324 324 324 325 325 325 324 322 321 319 317 318 316 313 310 308 305 301
252 261 271 285 298 306 312 315 319 322 323 324 324 325 326 326 327 327 327 327 325 324 323 322 322 321 317 315 312 311 309 305
256 263 275 290 301 308 313 317 321 323 323 324 325 326 328 328 328 329 329 328 327 327 327 327 326 321 321 319 316 317 316 306
255 266 281 292 302 310 316 320 321 323 324 325 327 328 329 330 330 330 330 330 330 332 334 334 324 325 324 322 324 322 272 292
257 271 283 297 306 312 316 320 323 324 326 327 328 329 330 331 332 331 331 332 334 336 339 331 329 331 331 331 327 306 310 335
264 275 288 301 308 316 320 323 325 326 328 329 330 331 332 333 333 333 334 337 339 340 335 336 338 342 340 336 314 310 317 324